EW6672 Weather Reports


time (UTC)temp
C
wind
direction
speed
KPH
gust
KPH
rain 1hr
cm
rain 24hr
cm
rain mn
cm
humidity
%
barometer
mb
20190423160018 11 202 4.8 17.7 0.00 0.81 0.56 83 918.1
20190423155018 11 157 4.8 24.1 0.00 0.81 0.56 82 918.2
20190423154019 11 112 3.2 12.9 0.00 0.81 0.56 82 918.0
20190423153018 11 90 4.8 17.7 0.00 0.81 0.56 80 917.9
20190423152018 11 135 3.2 11.3 0.00 0.81 0.56 79 917.8
20190423151019 11 112 3.2 22.5 0.00 0.81 0.56 76 917.8
20190423150018 11 157 3.2 17.7 0.00 0.81 0.56 74 917.5
20190423145018 11 135 8.0 35.4 0.00 0.81 0.56 73 917.7
20190423144019 12 202 6.4 19.3 0.00 0.81 0.56 73 917.4
20190423143019 12 157 8.0 32.2 0.00 0.81 0.56 72 917.6
20190423142019 12 157 11.3 35.4 0.00 0.81 0.56 71 917.2
20190423141019 12 157 9.7 37.0 0.00 0.81 0.56 69 917.2
20190423140019 12 135 8.0 20.9 0.00 0.81 0.56 65 917.5
20190423135019 12 225 9.7 33.8 0.00 0.81 0.56 65 917.9
20190423134018 13 157 9.7 33.8 0.00 0.81 0.56 66 917.5
20190423133019 13 135 9.7 33.8 0.00 0.81 0.56 65 917.5
20190423132018 13 157 9.7 33.8 0.00 0.81 0.56 63 917.6
20190423131019 14 225 8.0 35.4 0.00 0.81 0.56 60 917.2
20190423130019 14 157 8.0 29.0 0.00 0.81 0.56 60 916.9
20190423125019 14 135 9.7 27.4 0.00 0.81 0.56 60 917.3
20190423124018 15 157 11.3 25.7 0.00 0.81 0.56 57 917.4
20190423123019 14 157 11.3 51.5 0.00 0.81 0.56 57 917.2
20190423122019 14 202 9.7 29.0 0.00 0.81 0.56 57 917.1
20190423121018 13 180 8.0 29.0 0.00 0.81 0.56 58 917.2
20190423120018 14 157 8.0 30.6 0.00 0.81 0.56 56 917.0
20190423115018 15 135 8.0 27.4 0.00 0.81 0.56 53 917.1
20190423114018 15 202 6.4 32.2 0.00 0.81 0.56 52 917.1
20190423113018 15 180 8.0 43.5 0.00 0.81 0.56 51 917.2
20190423112018 16 157 9.7 27.4 0.00 0.81 0.56 49 916.9
20190423111018 16 157 9.7 25.7 0.00 0.81 0.56 48 917.1
20190423110018 16 157 9.7 20.9 0.00 0.81 0.56 49 917.0
20190423105019 16 135 9.7 25.7 0.00 0.81 0.56 49 916.9
20190423104018 16 180 9.7 29.0 0.00 0.81 0.56 48 917.2
20190423103018 17 180 8.0 25.7 0.00 0.81 0.56 48 916.9
20190423102018 17 180 9.7 20.9 0.00 0.81 0.56 47 917.1
20190423101018 17 180 8.0 25.7 0.00 0.81 0.56 44 916.9
20190423100018 17 157 8.0 40.2 0.00 0.81 0.56 46 916.8
20190423095018 17 157 9.7 46.7 0.00 0.81 0.56 44 916.7
20190423094019 17 157 9.7 27.4 0.00 0.81 0.56 44 916.8
20190423093018 17 157 8.0 29.0 0.00 0.81 0.56 46 916.8
20190423092018 17 180 9.7 29.0 0.00 0.81 0.56 44 916.6
20190423091019 16 157 9.7 29.0 0.00 0.81 0.56 42 916.4
20190423090019 17 225 8.0 25.7 0.00 0.81 0.56 42 916.8
20190423085019 16 157 9.7 30.6 0.00 0.81 0.56 44 916.4
20190423084019 17 180 6.4 14.5 0.00 0.81 0.56 42 916.6
20190423083018 16 135 6.4 24.1 0.00 0.81 0.56 49 916.3
20190423082018 16 135 6.4 19.3 0.00 0.81 0.56 50 916.2
20190423081018 16 135 6.4 14.5 0.00 0.81 0.56 47 916.1
20190423080018 16 135 6.4 20.9 0.00 0.81 0.56 56 916.2
20190423075018 16 135 4.8 19.3 0.00 0.81 0.56 50 916.1
20190423074018 16 90 4.8 12.9 0.00 0.81 0.56 59 916.0
20190423073018 16 157 3.2 16.1 0.00 0.81 0.56 53 915.9
20190423072018 15 90 3.2 11.3 0.00 0.81 0.56 59 916.0
20190423071018 15 90 1.6 8.0 0.00 0.81 0.56 67 916.0
20190423070018 14 112 3.2 11.3 0.00 0.81 0.56 66 916.0
20190423065018 13 112 3.2 6.4 0.00 0.81 0.56 67 915.8
20190423064018 13 112 3.2 12.9 0.00 0.81 0.56 66 915.8
20190423063018 13 135 1.6 11.3 0.00 0.81 0.56 66 915.7
20190423062018 13 90 1.6 6.4 0.00 0.81 0.56 68 915.8
20190423061018 12 157 3.2 11.3 0.00 0.81 0.56 64 915.7
20190423060018 11 315 1.6 6.4 0.00 0.81 0.56 71 915.6
20190423055020 10 315 1.6 4.8 0.00 0.81 0.56 80 915.7
20190423054022 10 22 1.6 11.3 0.00 0.81 0.56 80 915.8
20190423053018 10 135 1.6 6.4 0.00 0.81 0.56 83 916.0
20190423052019 10 112 1.6 11.3 0.00 0.81 0.56 84 916.0
20190423051018 9 90 1.6 6.4 0.00 0.81 0.56 86 915.8
20190423050018 9 135 1.6 6.4 0.00 0.81 0.56 87 915.8
20190423045019 8 135 1.6 4.8 0.00 0.81 0.56 90 915.7
20190423044019 8 292 1.6 6.4 0.00 0.81 0.56 93 915.6
20190423043018 8 0.0 3.2 0.00 0.81 0.56 93 915.7
20190423042019 7 0.0 3.2 0.00 0.81 0.56 93 915.8
20190423041019 7 0.0 3.2 0.00 0.81 0.56 93 915.8
20190423040019 7 0.0 3.2 0.00 0.81 0.56 93 915.9
20190423035018 8 135 1.6 3.2 0.00 0.81 0.56 92 916.0
20190423034020 8 157 1.6 8.0 0.00 0.81 0.56 93 915.9
20190423033018 7 112 3.2 9.7 0.00 0.81 0.56 94 916.0
20190423032019 7 135 4.8 11.3 0.00 0.81 0.56 94 916.1
20190423031018 7 135 3.2 11.3 0.00 0.81 0.56 94 916.2
20190423030019 7 112 3.2 9.7 0.00 0.81 0.56 94 916.2
20190423025018 7 157 3.2 8.0 0.00 0.81 0.56 94 916.3
20190423024018 7 157 1.6 9.7 0.00 0.81 0.56 94 916.4
20190423023020 7 90 1.6 9.7 0.00 0.81 0.56 94 916.4
20190423022019 8 112 1.6 8.0 0.05 0.81 0.56 93 916.4
20190423021018 8 112 1.6 9.7 0.08 0.81 0.56 93 916.6
20190423020019 8 112 1.6 6.4 0.08 0.81 0.56 93 916.8
20190423015018 8 112 1.6 6.4 0.08 0.81 0.56 92 917.0
20190423014020 8 90 1.6 6.4 0.10 0.81 0.56 92 916.9
20190423013018 8 0.0 1.6 0.15 0.81 0.56 93 917.1
20190423012019 8 0.0 3.2 0.15 0.74 0.51 93 917.3
20190423011018 8 90 1.6 8.0 0.15 0.71 0.46 93 917.3
20190423010020 8 0 1.6 6.4 0.15 0.71 0.46 93 917.6
20190423005019 8 0.0 1.6 0.15 0.71 0.46 93 917.6
20190423004019 8 0 1.6 4.8 0.13 0.69 0.46 93 917.6
20190423003019 8 0 1.6 3.2 0.08 0.64 0.41 93 917.7
20190423002019 8 0.0 3.2 0.08 0.58 0.36 92 917.9
20190423001019 8 0.0 3.2 0.08 0.56 0.30 91 918.0
20190423000018 7 0.0 4.8 0.08 0.56 0.30 90 917.9
20190422235019 7 292 1.6 6.4 0.08 0.56 0.30 91 917.9
20190422234019 7 292 1.6 4.8 0.08 0.56 0.30 89 917.9
20190422233019 8 67 1.6 4.8 0.08 0.56 0.30 86 918.2
20190422232019 8 45 1.6 11.3 0.05 0.48 0.25 85 918.4
20190422231019 7 157 1.6 14.5 0.08 0.46 0.20 91 918.6
20190422230018 7 0.0 3.2 0.15 0.46 0.20 91 918.5
20190422225018 7 0.0 3.2 0.20 0.46 0.20 91 918.8
20190422224022 7 0.0 3.2 0.33 0.46 0.20 90 919.1
20190422223019 7 315 1.6 8.0 0.38 0.46 0.20 88 919.3
20190422222019 8 135 3.2 11.3 0.38 0.43 0.18 87 919.8
20190422221020 8 112 1.6 6.4 0.36 0.36 0.13 90 920.0
20190422220019 8 157 3.2 8.0 0.28 0.28 0.05 90 919.9
20190422215020 8 180 1.6 6.4 0.23 0.23 0.23 90 919.9
20190422214021 8 135 1.6 9.7 0.10 0.10 0.10 88 919.9
20190422213020 8 135 1.6 9.7 0.05 0.05 0.05 86 920.0
20190422212020 9 135 1.6 9.7 0.03 0.03 0.03 83 919.9
20190422211020 9 135 3.2 9.7 0.00 0.00 0.00 83 920.0
20190422210020 8 0.0 4.8 0.00 0.00 0.00 84 920.1
20190422205021 9 0.0 1.6 0.00 0.00 0.00 83 920.1
20190422204020 10 0 3.2 14.5 0.00 0.00 0.00 79 920.0
20190422203020 10 112 1.6 6.4 0.00 0.00 0.00 75 920.0
20190422202020 10 180 1.6 9.7 0.00 0.00 0.00 73 919.9
20190422201021 10 180 1.6 9.7 0.00 0.00 0.00 70 919.8
20190422200020 10 157 4.8 9.7 0.00 0.00 0.00 68 919.8
20190422195020 11 225 3.2 14.5 0.00 0.00 0.00 65 919.7
20190422194020 11 270 3.2 12.9 0.00 0.00 0.00 64 919.5
20190422193020 11 247 4.8 24.1 0.00 0.00 0.00 63 919.4
20190422192020 11 202 3.2 14.5 0.00 0.00 0.00 63 919.3
20190422191020 11 135 3.2 12.9 0.00 0.00 0.00 60 919.4
20190422190020 11 202 1.6 8.0 0.00 0.00 0.00 58 919.2
20190422185021 11 292 3.2 14.5 0.00 0.00 0.00 56 919.1
20190422184021 11 157 3.2 17.7 0.00 0.00 0.00 57 918.9
20190422183020 11 202 1.6 8.0 0.00 0.00 0.00 58 918.9
20190422182020 10 135 1.6 4.8 0.00 0.00 0.00 58 918.7
20190422181020 10 157 1.6 8.0 0.00 0.00 0.00 58 918.5
20190422180020 10 0.0 1.6 0.00 0.00 0.00 60 918.3
20190422175020 11 292 1.6 12.9 0.00 0.00 0.00 60 918.1
20190422174020 10 135 1.6 6.4 0.00 0.00 0.00 63 918.1
20190422173021 10 0.0 4.8 0.00 0.00 0.00 66 918.1
20190422172020 11 315 1.6 6.4 0.00 0.00 0.00 65 917.9
20190422171020 11 225 3.2 11.3 0.00 0.00 0.00 65 918.0
20190422170020 11 270 3.2 11.3 0.00 0.00 0.00 66 917.9
20190422165020 11 135 3.2 11.3 0.00 0.00 0.00 66 918.0
20190422164021 11 157 1.6 8.0 0.00 0.00 0.00 66 917.9
20190422163020 11 135 3.2 9.7 0.00 0.00 0.00 64 917.9
20190422162020 12 135 3.2 17.7 0.00 0.00 0.00 61 917.9
20190422161020 12 157 3.2 11.3 0.00 0.00 0.00 60 917.9